Weather History for Yakima, WA

Change the Weather History Date:

Tuesday, May 28, 2013

  Actual Average Record
Temperature  
Mean Temperature 59 °F 60 °F  
Max Temperature 72 °F 76 °F 97 °F (1983)
Min Temperature 45 °F 45 °F 29 °F (1976)
Degree Days  
Heating Degree Days 6 6  
Month to date heating degree days 166 245  
Since 1 July heating degree days 5122 5927  
Cooling Degree Days 0 1  
Month to date cooling degree days 51 17  
Year to date cooling degree days 52 18  
Growing Degree Days 10 (Base 50)    
Moisture  
Dew Point 44 °F    
Average Humidity 66    
Maximum Humidity 96    
Minimum Humidity 35    
Precipitation  
Precipitation 0.00 in 0.03 in 0.39 in (1948)
Month to date precipitation 2.17 0.52  
Year to date precipitation 3.47 3.61  
Snow  
Snow 0.00 in 0.00 in 0.00 in (2002)
Month to date snowfall 0.0 0.0  
Year to date snowfall 1.1 8.6  
Since 1 July snowfall 15.3 21.6  
Snow Depth 0.00 in    
Sea Level Pressure  
Sea Level Pressure 29.79 in    
Wind  
Wind Speed 6 mph (WSW)    
Max Wind Speed 22 mph    
Max Gust Speed 29 mph    
Visibility 10 miles    
Events      
T = Trace of Precipitation, MM = Missing Value Source: NWS Daily Summary

Daily Weather History Graph

Daily Weather History Graph

Search for Another Location

Airport:

Trip Planner

Search our weather history database for the weather conditions in past years. The results will help you decide how hot, cold, wet, or windy it might be!

Date:

Astronomy

May. 28, 2013 Rise Set
Actual Time 5:15 AM PDT 8:44 PM PDT
Civil Twilight 4:37 AM PDT 9:22 PM PDT
Nautical Twilight 3:47 AM PDT 10:12 PM PDT
Astronomical Twilight 2:43 AM PDT 11:17 PM PDT
Moon No Moon Rise 9:15 AM PDT (5/28)
Length of Visible Light 16h 44m
Length of Day
15h 29m
Waning Gibbous, 82% of the Moon is Illuminated
May 28
Waning Gibbous
May 31
Last Quarter
Jun 8
New
Jun 16
First Quarter
Jun 23
Full

Hourly Weather History & Observations

Time (PDT) Temp. Dew Point Humidity Pressure Visibility Wind Dir Wind Speed Gust Speed Precip Events Conditions
12:53 AM 52.0 °F 48.9 °F 89% 29.78 in 10.0 mi Calm Calm - N/A   Mostly Cloudy
1:34 AM 51.8 °F 48.2 °F 88% 29.78 in 10.0 mi WNW 4.6 mph - N/A   Overcast
1:53 AM 52.0 °F 50.0 °F 93% 29.78 in 10.0 mi Calm Calm - N/A   Mostly Cloudy
2:01 AM 51.8 °F 48.2 °F 88% 29.78 in 10.0 mi Calm Calm - N/A   Mostly Cloudy
2:53 AM 50.0 °F 46.9 °F 89% 29.78 in 10.0 mi WNW 5.8 mph - N/A   Mostly Cloudy
3:53 AM 48.0 °F 45.0 °F 89% 29.80 in 10.0 mi West 6.9 mph - N/A   Partly Cloudy
4:53 AM 48.9 °F 46.0 °F 90% 29.81 in 10.0 mi Calm Calm - N/A   Overcast
5:53 AM 48.9 °F 46.0 °F 90% 29.81 in 10.0 mi WNW 3.5 mph - N/A   Mostly Cloudy
6:53 AM 48.9 °F 45.0 °F 86% 29.82 in 10.0 mi Calm Calm - N/A   Clear
7:53 AM 57.0 °F 46.0 °F 67% 29.83 in 10.0 mi Calm Calm - N/A   Clear
8:53 AM 60.1 °F 45.0 °F 57% 29.83 in 10.0 mi Calm Calm - N/A   Overcast
9:53 AM 64.0 °F 41.0 °F 43% 29.83 in 10.0 mi ESE 3.5 mph - N/A   Mostly Cloudy
10:53 AM 66.0 °F 41.0 °F 40% 29.82 in 10.0 mi SE 6.9 mph - N/A   Scattered Clouds
11:53 AM 66.9 °F 41.0 °F 39% 29.83 in 10.0 mi Calm Calm - N/A   Mostly Cloudy
12:53 PM 68.0 °F 39.9 °F 36% 29.81 in 10.0 mi South 12.7 mph 18.4 mph N/A   Scattered Clouds
1:53 PM 69.1 °F 41.0 °F 36% 29.81 in 10.0 mi South 12.7 mph - N/A   Overcast
2:53 PM 71.1 °F 43.0 °F 36% 29.80 in 10.0 mi SW 16.1 mph 24.2 mph N/A   Mostly Cloudy
3:53 PM 72.0 °F 43.0 °F 35% 29.78 in 10.0 mi SSW 12.7 mph 21.9 mph N/A   Mostly Cloudy
4:53 PM 71.1 °F 43.0 °F 36% 29.77 in 10.0 mi SW 13.8 mph 23.0 mph N/A   Mostly Cloudy
5:53 PM 68.0 °F 41.0 °F 37% 29.77 in 10.0 mi SW 15.0 mph 20.7 mph N/A   Mostly Cloudy
6:53 PM 68.0 °F 39.9 °F 36% 29.76 in 10.0 mi NW 12.7 mph - N/A   Mostly Cloudy
7:53 PM 66.9 °F 41.0 °F 39% 29.75 in 10.0 mi NNW 8.1 mph - N/A   Mostly Cloudy
8:53 PM 63.0 °F 39.9 °F 43% 29.75 in 10.0 mi NW 5.8 mph - N/A   Mostly Cloudy
9:53 PM 57.9 °F 43.0 °F 58% 29.76 in 10.0 mi North 3.5 mph - N/A   Clear
10:53 PM 50.0 °F 41.0 °F 71% 29.75 in 10.0 mi West 3.5 mph - N/A   Clear
11:53 PM 46.9 °F 41.0 °F 80% 29.73 in 10.0 mi Calm Calm - N/A   Clear